Find Global-18

NORAD ID: 52196 Int'l Des: 2022-034 Owner: BSKG Country: US operational
LEOCIRCULAR

Live Position

Loading 3D Globe...

About Global-18

Description loading...

Upcoming Passes

Passes for default location (London). Set your location on the main map for personalized predictions.

Altitude History

Loading altitude history...

Two-Line Element Set

1 52196U 22034B 26106.60728566 .00011507 00000-0 25809-3 0 9990
2 52196 52.9825 190.3741 0005505 57.9694 302.1844 15.43891723227440
Epoch: Apr 16, 2026 • Age: 10 hours

Current Status

Altitude 435.4 km
Velocity 7.65 km/s
Sub-Earth Point 22.72°N, 136.72°E
Launch Date Apr 2, 2022
Age 4 years
Type earth observation

Technical Details

Classification Payload
Mass 55.00 kg
Dry Mass 50.00 kg
Total Mass 55.00 kg
Length 1.00 m
Diameter 0.50 m
Span 1.00 m
Shape Box
Manufacturer LEOSTL
Bus Type BSky
Phase Status In Orbit
Owner/State BSKG/US

Most Searched